GW3251 Weather Reports


Display with metric or nautical units.
time (UTC)temp
F
wind
direction
speed
MPH
gust
MPH
rain 1hr
in
rain 24hr
in
rain mn
in
humidity
%
barometer
mb
20260906055538 77 0 0.0 0.0 0.00 0.00 0.00 90 1013.1
20260906055039 77 0 0.0 0.0 0.00 0.00 0.00 90 1012.9
20260906054600 77 0 0.0 0.0 0.00 0.00 0.00 90 1012.8
20260906054038 77 0 0.0 0.0 0.00 0.00 0.00 90 1013.0
20260906053538 77 0 0.0 0.0 0.00 0.00 0.00 91 1012.9
20260906053058 77 0 0.0 0.0 0.00 0.00 0.00 91 1012.9
20260906052538 77 0 0.0 0.0 0.00 0.00 0.00 91 1012.9
20260906052039 77 0 0.0 0.0 0.00 0.00 0.00 91 1013.1
20260906051557 77 0 0.0 0.0 0.00 0.00 0.00 91 1013.2
20260906051038 77 0 0.0 0.0 0.00 0.00 0.00 91 1013.1
20260906050542 77 0 0.0 0.0 0.00 0.00 0.00 90 1013.1
20260906050123 77 0 0.0 0.0 0.00 0.00 0.00 90 1013.0
20260906045537 77 0 0.0 0.0 0.00 0.00 0.00 90 1013.1
20260906045038 77 0 0.0 0.0 0.00 0.00 0.00 90 1013.1
20260906044604 77 0 0.0 0.0 0.00 0.00 0.00 90 1013.1
20260906044038 77 0 0.0 0.0 0.00 0.00 0.00 90 1013.3
20260906043538 77 0 0.0 0.0 0.00 0.00 0.00 90 1013.2
20260906043107 77 0 0.0 0.0 0.00 0.00 0.00 90 1013.2
20260906042539 77 0 0.0 0.0 0.00 0.00 0.00 90 1013.3
20260906042039 77 0 0.0 0.0 0.00 0.00 0.00 90 1013.2
20260906041557 77 0 0.0 0.0 0.00 0.00 0.00 90 1013.1
20260906041037 77 0 0.0 0.0 0.00 0.00 0.00 89 1013.0
20260906040538 77 0 0.0 0.0 0.00 0.00 0.00 89 1013.1
20260906040104 78 0 0.0 0.0 0.00 0.00 0.00 89 1013.0
20260906035539 78 0 0.0 0.0 0.00 0.00 0.00 89 1012.9
20260906035039 78 0 0.0 0.0 0.00 0.00 0.00 89 1013.0
20260906034557 78 0 0.0 0.0 0.00 0.00 0.00 89 1012.9
20260906034041 78 0 0.0 0.0 0.00 0.00 0.00 89 1012.9
20260906033538 78 0 0.0 0.0 0.00 0.00 0.00 89 1012.9
20260906033057 78 0 0.0 0.0 0.00 0.00 0.00 89 1012.9
20260906032539 78 0 0.0 0.0 0.00 0.00 0.00 88 1012.9
20260906032038 78 0 0.0 0.0 0.00 0.00 0.00 88 1012.7
20260906031557 78 0 0.0 0.0 0.00 0.00 0.00 88 1012.9
20260906031038 78 0 0.0 0.0 0.00 0.00 0.00 88 1013.0
20260906030542 78 0 0.0 0.0 0.00 0.00 0.00 88 1013.0
20260906030132 78 0 0.0 0.0 0.00 0.00 0.00 88 1012.9
20260906025538 78 0 0.0 0.0 0.00 0.00 0.00 88 1013.0
20260906025040 78 0 0.0 0.0 0.00 0.00 0.00 88 1013.0
20260906024555 78 0 0.0 0.0 0.00 0.00 0.00 88 1012.9
20260906024038 78 0 0.0 0.0 0.00 0.00 0.00 87 1012.9
20260906023541 78 0 0.0 0.0 0.00 0.00 0.00 87 1012.9
20260906023117 78 0 0.0 0.0 0.00 0.00 0.00 87 1012.9
20260906022538 78 0 0.0 0.0 0.00 0.00 0.00 87 1012.8
20260906022038 78 0 0.0 0.0 0.00 0.00 0.00 86 1012.7
20260906021611 78 0 0.0 0.0 0.00 0.00 0.00 86 1012.6
20260906021038 79 0 0.0 0.0 0.00 0.00 0.00 86 1012.5
20260906020538 79 0 0.0 0.0 0.00 0.00 0.00 85 1012.3
20260906015537 79 0 0.0 0.0 0.00 0.00 0.00 85 1012.1
20260906015038 79 0 0.0 0.0 0.00 0.00 0.00 84 1012.1
20260906014613 79 0 0.0 0.0 0.00 0.00 0.00 84 1012.0
20260906014037 79 0 0.0 0.0 0.00 0.00 0.00 84 1012.0
20260906013537 79 0 0.0 0.0 0.00 0.00 0.00 83 1011.9
20260906013059 79 0 0.0 0.0 0.00 0.00 0.00 83 1011.8
20260906012540 80 0 0.0 0.0 0.00 0.00 0.00 83 1011.7
20260906012038 80 0 0.0 0.0 0.00 0.00 0.00 82 1011.6
20260906011607 80 0 0.0 0.0 0.00 0.00 0.00 81 1011.7
20260906011038 80 0 0.0 0.0 0.00 0.00 0.00 81 1011.8
20260906010537 81 0 0.0 9.0 0.00 0.00 0.00 80 1011.8
20260906010101 81 0 0.0 9.0 0.00 0.00 0.00 80 1011.8
20260906005538 81 127 0.0 9.0 0.00 0.00 0.00 79 1011.9
20260906005038 81 0 0.0 9.0 0.00 0.00 0.00 78 1011.9
20260906004558 82 140 0.0 9.0 0.00 0.00 0.00 77 1012.1
20260906004038 82 0 0.0 0.0 0.00 0.00 0.00 77 1012.1
20260906003538 82 0 0.0 7.0 0.00 0.00 0.00 76 1012.2
20260906003108 82 0 0.0 8.0 0.00 0.00 0.00 75 1012.1
20260906002537 83 0 0.0 8.0 0.00 0.00 0.00 75 1012.3
20260906002040 83 0 0.0 8.0 0.00 0.00 0.00 74 1012.4
20260906001602 83 0 0.0 7.0 0.00 0.00 0.00 73 1012.4
20260906001038 83 0 0.0 8.0 0.00 0.00 0.00 73 1012.4
20260906000540 84 0 0.0 8.0 0.00 0.00 0.00 73 1012.2
20260906000059 84 0 0.0 7.0 0.00 0.00 0.00 72 1012.2
20260905235537 84 0 0.0 7.0 0.00 0.00 0.00 71 1012.1
20260905235038 84 0 0.0 4.0 0.00 0.00 0.00 71 1012.1
20260905234611 84 0 0.0 0.0 0.00 0.00 0.00 70 1012.2
20260905234039 84 0 0.0 0.0 0.00 0.00 0.00 69 1012.1
20260905233538 85 0 0.0 0.0 0.00 0.00 0.00 69 1012.1
20260905233056 85 0 0.0 4.0 0.00 0.00 0.00 68 1012.1
20260905232538 85 0 0.0 4.0 0.00 0.00 0.00 68 1012.1
20260905232038 85 0 0.0 4.0 0.00 0.00 0.00 68 1011.9
20260905231600 85 0 0.0 3.0 0.00 0.00 0.00 68 1011.8
20260905231038 86 0 0.0 3.0 0.00 0.00 0.00 68 1011.8
20260905230537 86 0 0.0 9.0 0.00 0.00 0.00 67 1011.8
20260905230103 87 0 0.0 9.0 0.00 0.00 0.00 66 1011.8
20260905225537 88 0 2.0 9.0 0.00 0.00 0.00 65 1011.6
20260905225038 89 0 0.0 7.0 0.00 0.00 0.00 63 1011.7
20260905224559 91 0 0.0 7.0 0.00 0.00 0.00 60 1011.6
20260905224038 92 0 0.0 0.0 0.00 0.00 0.00 57 1011.5
20260905223537 92 0 0.0 0.0 0.00 0.00 0.00 56 1011.5
20260905223056 93 0 0.0 0.0 0.00 0.00 0.00 56 1011.5
20260905222537 93 0 0.0 0.0 0.00 0.00 0.00 56 1011.6
20260905222038 94 0 0.0 0.0 0.00 0.00 0.00 55 1011.6
20260905221558 94 0 0.0 0.0 0.00 0.00 0.00 55 1011.6
20260905221038 94 0 0.0 0.0 0.00 0.00 0.00 55 1011.6
20260905220540 94 0 0.0 0.0 0.00 0.00 0.00 56 1011.6
20260905220059 94 0 0.0 0.0 0.00 0.00 0.00 54 1011.5
20260905215537 94 0 0.0 0.0 0.00 0.00 0.00 56 1011.4
20260905215038 94 0 0.0 1.0 0.00 0.00 0.00 56 1011.4
20260905214612 95 0 0.0 1.0 0.00 0.00 0.00 56 1011.4
20260905214039 94 0 0.0 0.0 0.00 0.00 0.00 58 1011.4
20260905213538 94 0 0.0 0.0 0.00 0.00 0.00 56 1011.6
20260905213111 94 0 0.0 0.0 0.00 0.00 0.00 58 1011.8
20260905212538 94 0 0.0 0.0 0.00 0.00 0.00 57 1011.9
20260905212037 95 0 0.0 0.0 0.00 0.00 0.00 57 1011.9
20260905211603 95 0 0.0 0.0 0.00 0.00 0.00 57 1011.8
20260905211038 94 0 0.0 0.0 0.00 0.00 0.00 57 1011.7
20260905210537 95 0 0.0 0.0 0.00 0.00 0.00 57 1011.8
20260905210058 95 0 0.0 0.0 0.00 0.00 0.00 57 1011.7
20260905205538 94 0 0.0 0.0 0.00 0.00 0.00 57 1011.9
20260905205039 94 0 0.0 0.0 0.00 0.00 0.00 57 1011.9
20260905204551 92 0 0.0 0.0 0.00 0.00 0.00 61 1012.0
20260905204038 91 0 0.0 0.0 0.00 0.00 0.00 63 1011.9
20260905203540 91 0 0.0 0.0 0.00 0.00 0.00 66 1012.0
20260905203102 90 0 0.0 0.0 0.00 0.00 0.00 68 1012.0
20260905202537 89 0 0.0 0.0 0.00 0.00 0.00 71 1012.2
20260905202041 89 0 0.0 0.0 0.00 0.00 0.00 71 1012.1
20260905201606 88 0 0.0 0.0 0.00 0.00 0.00 72 1012.2
20260905201038 89 0 0.0 0.0 0.00 0.00 0.00 72 1012.2
20260905200537 88 0 0.0 0.0 0.00 0.00 0.00 74 1012.3
20260905200101 87 0 0.0 1.0 0.00 0.00 0.00 75 1012.5
20260905195538 87 0 0.0 1.0 0.00 0.00 0.00 75 1012.5
20260905195037 88 0 0.0 0.0 0.00 0.00 0.00 74 1012.6
20260905194558 88 0 0.0 0.0 0.00 0.00 0.00 72 1012.5
20260905194038 88 0 0.0 3.0 0.00 0.00 0.00 71 1012.5
20260905193537 88 0 0.0 3.0 0.00 0.00 0.00 73 1012.6
20260905193103 90 0 0.0 0.0 0.00 0.00 0.00 70 1012.6
20260905192538 92 0 0.0 0.0 0.00 0.00 0.00 65 1012.8
20260905192038 92 0 0.0 0.0 0.00 0.00 0.00 59 1012.6
20260905191612 93 0 0.0 1.0 0.00 0.00 0.00 57 1012.6
20260905191041 94 0 0.0 1.0 0.00 0.00 0.00 55 1012.8
20260905190538 94 0 0.0 0.0 0.00 0.00 0.00 55 1012.8
20260905190103 95 0 0.0 8.0 0.00 0.00 0.00 54 1013.0
20260905185537 96 0 0.0 8.0 0.00 0.00 0.00 53 1013.0
20260905185038 99 0 0.0 9.0 0.00 0.00 0.00 50 1013.0
20260905184616 99 0 0.0 9.0 0.00 0.00 0.00 50 1013.2
20260905184038 96 0 0.0 3.0 0.00 0.00 0.00 53 1013.3
20260905183540 97 0 0.0 3.0 0.00 0.00 0.00 50 1013.4
20260905183103 98 0 0.0 0.0 0.00 0.00 0.00 51 1013.3
20260905182541 97 0 0.0 0.0 0.00 0.00 0.00 50 1013.4
20260905182038 96 0 0.0 0.0 0.00 0.00 0.00 53 1013.5
20260905181600 93 0 0.0 0.0 0.00 0.00 0.00 58 1013.7
20260905181040 92 0 0.0 0.0 0.00 0.00 0.00 59 1013.9
20260905180538 92 0 0.0 0.0 0.00 0.00 0.00 58 1014.0
20260905180110 93 0 0.0 0.0 0.00 0.00 0.00 57 1014.1
20260905175538 93 0 0.0 0.0 0.00 0.00 0.00 57 1014.1
20260905175038 95 0 0.0 3.0 0.00 0.00 0.00 54 1014.0
20260905174617 96 0 0.0 3.0 0.00 0.00 0.00 54 1014.3
20260905174037 97 0 0.0 1.0 0.00 0.00 0.00 55 1014.5
20260905173538 97 0 0.0 0.0 0.00 0.00 0.00 54 1014.4
20260905173108 95 0 0.0 0.0 0.00 0.00 0.00 54 1014.4
20260905172540 94 0 0.0 0.0 0.00 0.00 0.00 53 1014.5
20260905172037 95 0 0.0 0.0 0.00 0.00 0.00 53 1014.5
20260905171552 95 0 0.0 8.0 0.00 0.00 0.00 55 1014.7
20260905171040 95 0 0.0 8.0 0.00 0.00 0.00 53 1014.6
20260905170538 94 231 0.0 0.0 0.00 0.00 0.00 57 1014.5
20260905165537 94 0 0.0 1.0 0.00 0.00 0.00 55 1014.7
20260905165038 94 0 0.0 1.0 0.00 0.00 0.00 55 1014.7
20260905164600 94 0 0.0 1.0 0.00 0.00 0.00 59 1014.8
20260905164039 93 0 0.0 0.0 0.00 0.00 0.00 57 1014.7
20260905163537 92 0 0.0 0.0 0.00 0.00 0.00 61 1014.7
20260905163102 92 0 0.0 0.0 0.00 0.00 0.00 63 1014.7
20260905162539 92 0 0.0 0.0 0.00 0.00 0.00 60 1014.9
20260905162038 93 0 0.0 0.0 0.00 0.00 0.00 59 1015.0
20260905161602 92 0 0.0 0.0 0.00 0.00 0.00 63 1014.9
20260905161038 92 0 0.0 0.0 0.00 0.00 0.00 63 1014.8
20260905160537 92 0 0.0 0.0 0.00 0.00 0.00 64 1014.9
20260905160110 93 0 0.0 0.0 0.00 0.00 0.00 65 1014.8
20260905155541 91 0 0.0 0.0 0.00 0.00 0.00 68 1014.6
20260905155037 90 0 0.0 0.0 0.00 0.00 0.00 68 1014.7
20260905154557 89 0 0.0 0.0 0.00 0.00 0.00 70 1014.8
20260905154038 88 0 0.0 0.0 0.00 0.00 0.00 74 1014.8
20260905153537 88 0 0.0 1.0 0.00 0.00 0.00 74 1014.8
20260905153109 88 0 0.0 1.0 0.00 0.00 0.00 71 1014.9
20260905152538 88 0 0.0 0.0 0.00 0.00 0.00 74 1014.9
20260905152037 89 0 0.0 6.0 0.00 0.00 0.00 72 1014.8
20260905151601 89 0 0.0 6.0 0.00 0.00 0.00 74 1014.8
20260905151041 89 0 0.0 2.0 0.00 0.00 0.00 73 1014.9
20260905150537 88 0 0.0 0.0 0.00 0.00 0.00 76 1014.9
20260905145538 87 0 0.0 0.0 0.00 0.00 0.00 78 1014.8
20260905145038 86 0 0.0 0.0 0.00 0.00 0.00 80 1014.8
20260905144553 86 0 0.0 0.0 0.00 0.00 0.00 82 1014.9
20260905144037 85 0 0.0 0.0 0.00 0.00 0.00 82 1014.9
20260905143538 84 0 0.0 0.0 0.00 0.00 0.00 85 1014.9
20260905143100 84 0 0.0 0.0 0.00 0.00 0.00 84 1014.8
20260905142538 83 0 0.0 0.0 0.00 0.00 0.00 87 1014.8
20260905142042 82 0 0.0 0.0 0.00 0.00 0.00 89 1014.8
20260905141614 81 0 0.0 0.0 0.00 0.00 0.00 91 1014.8
20260905141042 80 0 0.0 0.0 0.00 0.00 0.00 93 1014.9
20260905140542 79 0 0.0 0.0 0.00 0.00 0.00 93 1014.6
20260905140106 79 0 0.0 0.0 0.00 0.00 0.00 95 1014.7
20260905135537 78 0 0.0 0.0 0.00 0.00 0.00 95 1014.7
20260905135038 77 0 0.0 0.0 0.00 0.00 0.00 95 1014.6
20260905134607 77 0 0.0 0.0 0.00 0.00 0.00 95 1014.7
20260905134037 77 0 0.0 0.0 0.00 0.00 0.00 95 1014.7
20260905133538 77 0 0.0 0.0 0.00 0.00 0.00 95 1014.6
20260905133103 76 0 0.0 0.0 0.00 0.00 0.00 95 1014.6
20260905132538 76 0 0.0 0.0 0.00 0.00 0.00 95 1014.5
20260905132038 76 0 0.0 0.0 0.00 0.00 0.00 95 1014.5
20260905131606 75 0 0.0 0.0 0.00 0.00 0.00 95 1014.4
20260905131038 75 0 0.0 0.0 0.00 0.00 0.00 95 1014.4
20260905130538 75 0 0.0 0.0 0.00 0.00 0.00 95 1014.3
20260905130104 75 0 0.0 0.0 0.00 0.00 0.00 95 1014.3
20260905125537 74 0 0.0 0.0 0.00 0.00 0.00 95 1014.3
20260905125038 74 0 0.0 0.0 0.00 0.00 0.00 95 1014.1
20260905124558 74 0 0.0 0.0 0.00 0.00 0.00 94 1014.1
20260905124038 74 0 0.0 0.0 0.00 0.00 0.00 94 1014.3
20260905123537 73 0 0.0 0.0 0.00 0.00 0.00 94 1014.2
20260905123100 73 0 0.0 0.0 0.00 0.00 0.00 94 1014.0
20260905122538 73 0 0.0 0.0 0.00 0.00 0.00 94 1014.0
20260905122038 73 0 0.0 0.0 0.00 0.00 0.00 94 1014.0
20260905121602 73 0 0.0 0.0 0.00 0.00 0.00 94 1014.0
20260905121038 73 0 0.0 0.0 0.00 0.00 0.00 94 1013.8
20260905120542 73 0 0.0 0.0 0.00 0.00 0.00 94 1013.7
20260905115541 73 0 0.0 0.0 0.00 0.00 0.00 94 1013.7
20260905115039 73 0 0.0 0.0 0.00 0.00 0.00 94 1013.7
20260905114626 73 0 0.0 0.0 0.00 0.00 0.00 94 1013.8
20260905114038 73 0 0.0 0.0 0.00 0.00 0.00 94 1013.6
20260905113538 73 0 0.0 0.0 0.00 0.00 0.00 94 1013.6
20260905113059 73 0 0.0 0.0 0.00 0.00 0.00 94 1013.5
20260905112538 73 0 0.0 0.0 0.00 0.00 0.00 94 1013.5
20260905112037 73 0 0.0 0.0 0.00 0.00 0.00 94 1013.3
20260905111556 73 0 0.0 0.0 0.00 0.00 0.00 94 1013.4
20260905111038 73 0 0.0 0.0 0.00 0.00 0.00 94 1013.4
20260905110539 73 0 0.0 0.0 0.00 0.00 0.00 94 1013.3
20260905110059 73 0 0.0 0.0 0.00 0.00 0.00 94 1013.4
20260905105537 73 0 0.0 0.0 0.00 0.00 0.00 94 1013.2
20260905105038 74 0 0.0 0.0 0.00 0.00 0.00 94 1013.3
20260905104555 74 0 0.0 0.0 0.00 0.00 0.00 94 1013.1
20260905104037 74 0 0.0 0.0 0.00 0.00 0.00 94 1013.2
20260905103537 74 0 0.0 0.0 0.00 0.00 0.00 94 1013.0
20260905103104 74 0 0.0 0.0 0.00 0.00 0.00 94 1013.2
20260905102537 74 0 0.0 0.0 0.00 0.00 0.00 94 1013.2
20260905102038 74 0 0.0 0.0 0.00 0.00 0.00 94 1013.2
20260905101559 74 0 0.0 0.0 0.00 0.00 0.00 94 1013.1
20260905101037 74 0 0.0 0.0 0.00 0.00 0.00 93 1013.1
20260905100537 74 0 0.0 0.0 0.00 0.00 0.00 93 1013.0
20260905100114 74 0 0.0 0.0 0.00 0.00 0.00 93 1013.2
20260905095537 74 0 0.0 0.0 0.00 0.00 0.00 94 1013.2
20260905095041 74 0 0.0 0.0 0.00 0.00 0.00 94 1013.2
20260905094607 75 0 0.0 0.0 0.00 0.00 0.00 94 1013.1
20260905094037 75 0 0.0 0.0 0.00 0.00 0.00 94 1013.2
20260905093538 75 0 0.0 0.0 0.00 0.00 0.00 93 1013.2
20260905093058 75 0 0.0 0.0 0.00 0.00 0.00 93 1013.1
20260905092539 75 0 0.0 0.0 0.00 0.00 0.00 93 1013.1
20260905092037 75 0 0.0 0.0 0.00 0.00 0.00 93 1013.2
20260905091614 75 0 0.0 0.0 0.00 0.00 0.00 93 1013.2
20260905091038 75 0 0.0 0.0 0.00 0.00 0.00 93 1013.2
20260905090537 75 0 0.0 0.0 0.00 0.00 0.00 93 1013.1
20260905090100 75 0 0.0 0.0 0.00 0.00 0.00 93 1013.1
20260905085538 75 0 0.0 0.0 0.00 0.00 0.00 93 1013.0
20260905085036 75 0 0.0 0.0 0.00 0.00 0.00 93 1013.0
20260905084600 75 0 0.0 0.0 0.00 0.00 0.00 93 1013.0
20260905084038 75 0 0.0 0.0 0.00 0.00 0.00 93 1012.9
20260905083540 75 0 0.0 0.0 0.00 0.00 0.00 93 1012.8
20260905083055 75 0 0.0 0.0 0.00 0.00 0.00 93 1012.9
20260905082538 75 0 0.0 0.0 0.00 0.00 0.00 93 1012.9
20260905082037 75 0 0.0 0.0 0.00 0.00 0.00 93 1012.9
20260905081556 75 0 0.0 0.0 0.00 0.00 0.00 93 1012.9
20260905081038 75 0 0.0 0.0 0.00 0.00 0.00 93 1012.9
20260905080538 75 0 0.0 0.0 0.00 0.00 0.00 92 1012.9
20260905075538 76 0 0.0 0.0 0.00 0.00 0.00 92 1013.1
20260905075038 76 0 0.0 0.0 0.00 0.00 0.00 92 1013.1
20260905074604 76 0 0.0 0.0 0.00 0.00 0.00 92 1013.1
20260905074038 76 0 0.0 0.0 0.00 0.00 0.00 92 1013.2
20260905073537 76 0 0.0 0.0 0.00 0.00 0.00 92 1013.1
20260905073109 76 0 0.0 0.0 0.00 0.00 0.00 92 1013.0
20260905072537 76 0 0.0 0.0 0.00 0.00 0.00 92 1013.2
20260905072037 76 0 0.0 0.0 0.00 0.00 0.00 92 1013.4
20260905071557 76 0 0.0 0.0 0.00 0.00 0.00 92 1013.4
20260905071039 76 0 0.0 0.0 0.00 0.00 0.00 92 1013.5
20260905070538 76 0 0.0 0.0 0.00 0.00 0.00 91 1013.4
20260905070057 76 0 0.0 0.0 0.00 0.00 0.00 91 1013.5
20260905065537 76 0 0.0 0.0 0.00 0.01 0.00 91 1013.4
20260905065041 76 0 0.0 0.0 0.00 0.01 0.00 91 1013.7
20260905064615 76 0 0.0 0.0 0.00 0.01 0.00 91 1013.5
20260905064038 76 0 0.0 0.0 0.00 0.01 0.00 91 1013.6
20260905063538 76 0 0.0 0.0 0.00 0.01 0.00 91 1013.6
20260905063101 76 0 0.0 0.0 0.00 0.01 0.00 91 1013.5
20260905062537 76 0 0.0 0.0 0.00 0.01 0.00 91 1013.5
20260905062038 76 0 0.0 0.0 0.00 0.01 0.00 91 1013.6
20260905061617 76 0 0.0 0.0 0.00 0.01 0.00 90 1013.6
20260905061039 76 0 0.0 0.0 0.00 0.01 0.00 90 1013.6
20260905060538 76 0 0.0 0.0 0.00 0.01 0.00 90 1013.7
20260905060105 76 0 0.0 0.0 0.00 0.01 0.00 90 1013.6